Location: Strawberry
(45.6646°N, 111.9596°W)
Time: 21:31:01
(UTC+00:00)

Envisat - Pass Details

Date: 19 August 2022
Orbit: 764 x 765 km, 98.2° (Epoch: 27 September)

Event Time Altitude Azimuth Distance (km) Brightness Sun altitude
Rises 11:57:34 0° 14° (NNE) 3,243 6.9 -6.6°
Reaches altitude 10° 11:59:53 10° 15° (NNE) 2,312 6.1 -6.2°
Maximum altitude 12:04:59 84° 103° (ESE) 775 3.1 -5.4°
Drops below altitude 10° 12:10:04 10° 193° (SSW) 2,294 5.1 -4.6°
Sets 12:12:21 0° 194° (SSW) 3,215 5.9 -4.2°
